User: anonymous
Location: Caltech
(34.1382°N, 118.1253°W)
Time: 22:57:14
(UTC-07:00)
Language:

Cosmos 2251 Rocket - Orbit

View from above orbital plane
View from above orbital plane
View from above satellite
View from above satellite

Ground track
Ground track

The orbit data is extracted from the following two-line orbital elements,

1 22676U 93036B   14203.80441830  .00000009  00000-0  12586-4 0  2743
2 22676 074.0456 320.8264 0019680 249.3298 110.5743 14.33621803103362
Epoch (UTC): 22 July 2014 19:18:21
Eccentricity: 0.0019680
inclination: 74.0456°
perigee height: 765 km
apogee height: 794 km
right ascension of ascending node: 320.8264°
argument of perigee: 249.3298°
revolutions per day: 14.33621803
mean anomaly at epoch: 110.5743°
orbit number at epoch: 10336

The dashed part of the orbit path shows where the satellite is in the earth's shadow,  

DLR